This demonstration page uses our WeatherBlox Daily Observations layout. Learn more.

41.55636, -103.73856

Hourly Observations for August 4, 2018

Temp ( °F °C ) Dew Point ( °F °C ) Humidity (%) Winds ( mph kmh ) Pressure ( in mb ) Visibility ( mi km ) Precip ( " mm )
12:58 am 00:58 Clear 59 15.1 50 9.8 71 71 WSW 7 11 29.83 1010 10 16.09344 0 0
1:58 am 01:58 Mostly Cloudy 60 15.5 50 9.9 69 69 N 13 20 29.83 1010 10 16.09344 0 0
2:58 am 02:58 Clear 62 16.7 46 7.6 55 55 NW 10 17 29.83 1010 10 16.09344 0 0
3:58 am 03:58 Clear 61 16.1 45 7.4 57 57 NW 12 19 29.83 1010 10 16.09344 0 0
4:58 am 04:58 Clear 57 13.7 46 7.5 66 66 NNW 7 11 29.85 1011 10 16.09344 0 0
5:58 am 05:58 Sunny 54 12.1 47 8.3 78 78 NW 10 17 29.85 1011 10 16.09344 0 0
6:58 am 06:58 Sunny 55 12.8 48 8.8 77 77 NW 7 11 29.88 1012 10 16.09344 0 0
7:58 am 07:58 Sunny 62 16.8 50 10.1 65 65 Calm 29.88 1012 10 16.09344 0 0
8:58 am 08:58 Sunny 68 20.1 53 11.6 58 58 Calm 29.88 1012 10 16.09344 0 0
9:58 am 09:58 Sunny 75 24.1 51 10.7 43 43 NW 7 11 29.85 1011 10 16.09344 0 0
10:58 am 10:58 Sunny 83 28.1 47 8.4 29 29 NW 10 17 29.85 1011 10 16.09344 0 0
11:58 am 11:58 Sunny 87 30.6 46 7.8 24 24 NW 17 28 29.83 1010 10 16.09344 0 0
12:58 pm 12:58 Sunny 89 31.4 42 5.6 20 20 NW 9 15 29.83 1010 10 16.09344 0 0
1:58 pm 13:58 Mostly Sunny 89 31.6 43 5.9 20 20 N 12 19 29.83 1010 10 16.09344 0 0
2:58 pm 14:58 Mostly Sunny 89 31.6 42 5.5 19 19 N 12 19 29.83 1010 10 16.09344 0 0
3:58 pm 15:58 Mostly Cloudy 88 30.9 43 6.3 21 21 WNW 7 11 29.8 1009 10 16.09344 0 0
4:58 pm 16:58 Mostly Sunny 88 31.2 40 4.5 18 18 NNE 12 19 29.83 1010 10 16.09344 0 0
5:58 pm 17:58 Partly Cloudy 80 26.7 54 12.4 41 41 SE 7 11 29.85 1011 10 16.09344 0 0
6:58 pm 18:58 Mostly Sunny 73 22.5 52 11.3 49 49 WSW 3 6 29.85 1011 10 16.09344 0 0
7:58 pm 19:58 Mostly Cloudy with Light Showers 75 23.7 47 8.5 38 38 W 12 19 29.88 1012 10 16.09344 0 0
8:58 pm 20:58 Mostly Cloudy with Light Showers 72 22.1 47 8.3 41 41 S 6 9 29.85 1011 10 16.09344 0 0
9:58 pm 21:58 Windy with Rain Showers Likely 68 20.2 51 10.6 54 54 WSW 23 37 29.94 1014 10 16.09344 0 0
10:58 pm 22:58 Partly Cloudy 69 20.5 52 10.9 54 54 WSW 7 11 29.88 1012 10 16.09344 0 0
11:58 pm 23:58 Mostly Cloudy 69 20.8 48 9.1 47 47 S 7 11 29.85 1011 10 16.09344 0 0

Powered by AerisWeather